SCP
0 0 0 0 0 0 0 0 0 0 0 0 -0 -0 -0 0 0 0 0 0 0 0 0 0 0 0 0 0 0 0 0 0 0 0 0 0 0 0 0 0 0 0 0 0
0 0 0 0 0 0 0 0 0 0 -0 0 0 -0 0 0 0 0 0 0 0 0 0 0 0 0 0 0 0 0 0 0 0 0 0 0 0 0 0 0 0 0 0 0
0 0 0 0 0 0 0 0 0 0 0 0 0 0 0 0 0 0 0 0 0 0 0 -0 0 0 0 0 0 0 0 0 0 0 0 0 0 0 0 0 0 0 0 0
0 0 0 0 0 0 0 0 -0 0 0 0 0 0 0 0 0 0 0 0 0 0 -0 -0 0 0 0 0 0 0 0 0 0 0 0 0 0 0 0 0 0 0 0 0
0 0 0 0 0 0 0 0 0 0 0 0 0 0 0 0 0 0 0 0 0 0 -0 -0 0 0 0 0 0 0 0 0 0 0 0 0 0 0 0 0 0 0 0 0
0 0 0 0 0 0 0 0 0 0 0 0 0 0 0 0 0 0 0 0 0 0 -0 0 0 0 0 0 0 0 0 0 0 0 0 0 0 0 0 0 0 0 0 0
0 0 0 0 0 0 0 0 0 0 0 0 0 0 0 0 0 0 0 0 0 -0 -0 0 0 0 0 0 0 0 0 0 0 0 0 0 0 0 0 0 0 0 0 0
0 0 0 0 0 0 0 0 0 0 0 0 0 0 0 0 0 0 0 0 0 0 0 0 0 0 0 0 0 0 0 0 0 0 0 0 0 0 0 0 0 0 0 0
0 0 0 0 0 0 0 0 0 0 0 0 0 0 0 0 0 0 0 0 0 0 0 0 0 0 0 0 0 0 0 0 0 0 0 0 0 0 0 0 0 0 0 0
0 0 0 0 0 0 0 0 0 0 0 -0 0 0 0 0 0 0 0 0 0 0 0 0 0 0 0 0 0 0 0 0 0 0 0 0 0 0 0 0 0 0 0 0
0 0 0 0 0 0 0 0 0 0 0 0 0 0 0 0 0 0 0 0 0 0 0 0 0 0 0 0 0 0 0 0 0 0 0 0 0 0 0 0 0 0 0 0
0 0 0 0 0 0 0 0 0 0 0 0 0 0 0 0 0 0 0 0 0 0 0 0 0 0 0 0 0 0 0 0 0 0 0 0 0 0 0 0 0 0 0 0
0 0 0 0 0 0 0 0 0 0 0 -0 -0 -0 -0 -0 -0 0 -0 -0 -0 0 0 0 0 0 0 0 0 0 0 0 0 0 0 0 0 0 0 0 0 0 0 0
0 0 0 0 0 0 0 0 0 -0 -0 -0 -0 -0 -0 -0 -0 -0 -0 -0 0 0 0 0 0 0 0 0 0 0 0 0 0 0 0 0 0 0 0 0 0 0 0 0
0 0 0 0 0 0 0 0 0 -0 -0 -0 -0 -0 -0 -0 -0 -0 -0 -0 -0 -0 0 0 0 0 0 0 0 0 0 0 0 0 0 0 0 0 0 0 0 0 0 0
0 0 0 0 0 0 0 0 0 -0 -0 -0 -0 -0 -0 -0 -0 -0 -0 -0 -0 -0 -0 0 0 0 0 0 0 0 0 0 0 0 0 0 0 0 0 0 0 0 0 0
0 0 0 0 0 0 0 0 0 0 -0 -0 -0 -0 -0 -0 -0 -0 -0 -0 -0 -0 -0 0 0 0 0 0 0 0 0 0 0 0 0 0 0 0 0 0 0 0 0 0
0 0 0 0 0 0 0 0 -0 -0 -0 -0 -0 -0 -0 -0 -0 -0 0 0 -0 -0 -0 0 0 0 0 0 0 0 0 0 0 0 0 0 0 0 0 0 0 0 0 0
0 0 0 0 0 0 0 -0 -0 -0 -0 -0 -0 -0 -0 -0 -0 -0 -0 -0 0 0 0 0 0 0 0 0 0 0 0 0 0 0 0 0 0 0 0 0 0 0 0 0
0 0 0 0 0 0 -0 -0 -0 -0 -0 -0 -0 -0 -0 -0 -0 -0 -0 -0 -0 -0 0 0 0 0 0 0 0 0 0 0 0 0 0 0 0 0 0 0 0 0 0 0
0 0 0 0 0 0 -0 -0 -0 -0 -0 -0 -0 -0 -0 -0 -0 -0 -0 -0 0 0 0 0 0 0 0 0 0 0 0 0 0 0 0 0 0 0 0 0 0 0 0 0
0 0 0 0 0 0 0 0 -0 -0 -0 -0 -0 -0 -0 -0 -0 -0 -0 0 0 0 0 0 0 0 0 0 0 0 0 0 0 0 0 0 0 0 0 0 0 0 0 0
0 0 0 0 0 0 0 0 0 0 0 0 0 -0 -0 -0 -0 -0 -0 0 0 0 0 0 0 0 0 0 0 0 0 0 0 0 0 0 0 0 0 0 0 0 0 0
0 0 0 0 0 0 0 0 0 0 0 0 0 0 0 0 0 0 -0 -0 0 0 0 0 0 0 0 0 0 0 0 0 0 0 0 0 0 0 0 0 0 0 0 0
0 0 0 0 0 0 0 0 0 0 0 0 0 0 0 0 0 0 0 0 0 0 0 0 0 0 0 0 0 0 0 0 0 0 0 0 0 0 0 0 0 0 0 0
0 0 0 0 0 0 0 0 0 0 0 0 0 0 0 0 0 0 0 0 0 0 0 0 0 0 0 0 0 0 0 0 0 0 0 0 0 0 0 0 0 0 0 0
0 0 0 0 0 0 0 0 0 0 0 0 0 0 0 0 0 0 0 0 0 0 0 0 0 0 0 0 0 0 0 0 0 0 0 0 0 0 0 0 0 0 0 0
Wind_Speed_500mb
15 20 18 24 22 23 29 25 15 6 9 16 24 19 24 38 41 43 42 33 25 22 21 17 15 14 14 14 14 13 12 13 13 16 18 15 12 13 16 19 17 17 18 19
8 3 5 11 20 26 29 31 29 29 39 3 19 24 25 32 33 38 44 43 35 28 24 20 18 16 16 15 13 11 10 10 12 12 13 11 9 8 11 14 16 18 22 24
5 3 14 14 13 19 8 3 17 21 8 11 17 23 29 30 31 35 48 49 43 35 29 26 22 20 17 16 14 10 7 7 8 8 7 8 7 10 12 13 16 17 18 20
7 3 9 4 2 2 8 9 17 9 9 15 26 46 51 21 18 44 56 53 50 41 32 29 28 26 23 20 17 15 12 10 8 7 7 8 9 9 10 12 15 16 18 18
6 8 10 6 8 9 9 5 14 10 11 26 34 41 6 8 30 63 61 51 48 43 38 34 31 30 32 30 27 25 20 17 16 16 15 14 12 12 10 10 11 12 14 15
6 7 7 6 6 8 4 9 8 6 13 23 30 13 1 21 65 61 50 46 47 42 39 36 32 36 39 40 41 38 32 30 29 28 28 26 24 22 21 19 16 14 14 14
17 9 8 6 11 14 5 4 5 10 21 24 15 21 50 63 58 52 50 48 45 43 41 36 32 39 47 47 52 43 42 42 40 37 34 33 31 29 27 26 24 21 18 16
11 11 15 18 13 7 3 11 17 20 24 30 36 43 48 51 52 51 51 48 44 48 44 39 40 41 47 56 50 51 52 54 50 45 43 41 39 36 35 33 31 28 26 22
12 3 7 26 3 4 12 12 16 25 27 28 34 36 40 43 43 46 47 49 49 50 51 44 39 42 50 48 52 56 57 60 59 55 52 49 47 43 42 39 37 33 32 30
3 8 7 10 12 6 10 15 17 19 24 25 30 34 39 39 44 49 52 55 55 54 51 47 40 41 46 45 49 56 61 62 64 66 61 58 55 52 50 46 42 40 38 36
6 7 18 16 6 4 13 16 17 19 22 23 27 31 36 43 45 48 53 54 52 51 51 49 45 43 43 46 45 53 57 61 68 69 68 67 63 59 56 51 48 46 45 43
4 21 4 16 6 4 12 15 18 21 21 21 25 31 37 40 43 49 53 51 51 48 48 48 48 44 42 42 41 46 54 56 60 70 71 72 69 66 61 57 52 51 49 51
8 15 10 9 7 7 11 14 16 18 21 26 28 33 37 41 45 48 48 49 50 51 47 49 50 47 44 42 40 42 46 48 50 59 65 68 72 72 71 63 60 56 52 51
13 11 11 10 6 4 9 12 16 18 24 30 35 36 40 43 45 47 48 49 49 48 46 48 48 46 45 45 44 43 43 45 44 47 53 61 63 66 65 65 64 61 55 53
19 12 15 13 8 5 10 14 20 29 34 37 39 43 46 48 48 48 49 49 50 48 46 47 48 47 46 45 44 42 40 38 39 42 43 46 53 57 58 59 58 58 55 56
25 17 17 14 8 5 10 20 25 30 36 40 44 46 47 48 47 46 48 48 53 56 54 52 49 48 46 45 44 40 36 35 34 33 35 38 40 40 42 44 45 46 47 47
33 25 21 14 9 9 16 22 27 33 37 41 46 49 50 52 51 50 48 47 46 48 47 50 49 46 45 44 42 37 34 31 30 29 28 27 26 27 28 29 30 31 33 34
26 24 21 14 10 10 13 19 26 32 38 44 48 50 52 54 55 55 53 51 46 40 42 44 45 44 41 39 36 34 32 30 27 24 20 19 17 16 15 15 16 16 17 19
30 23 15 9 7 12 17 22 27 33 38 43 46 49 51 52 51 50 49 49 48 47 43 41 41 40 39 37 34 31 28 26 24 23 20 18 17 16 15 14 13 13 13 13
24 15 7 2 6 13 19 25 31 35 40 44 47 49 50 49 50 49 46 45 44 46 42 40 38 36 36 36 34 31 29 28 26 25 24 23 22 20 19 18 16 16 16 16
17 11 7 7 13 19 25 31 35 39 42 46 49 50 51 49 48 49 47 42 38 35 34 34 34 32 31 31 28 26 25 24 24 25 25 25 24 24 23 23 23 23 24 25
15 12 13 20 26 29 33 37 41 46 46 48 50 51 50 48 48 44 43 39 36 35 34 31 28 25 27 26 24 24 24 24 25 25 25 26 27 28 29 31 32 32 32 33
18 21 26 30 35 41 46 48 46 50 52 51 51 50 49 48 46 45 41 37 32 31 29 25 21 21 21 20 21 22 23 24 26 28 30 31 33 35 36 37 38 40 40 41
28 33 38 44 50 55 58 55 53 55 55 55 53 50 49 47 45 42 38 33 30 26 23 20 17 17 19 19 19 21 24 27 30 33 35 37 39 41 43 46 47 47 48 50
40 46 51 54 57 57 57 57 57 58 57 55 53 50 49 46 43 42 36 30 27 23 21 18 17 18 18 18 21 24 29 33 37 39 40 43 46 49 49 51 53 55 57 58
50 52 53 54 56 57 60 59 58 58 59 56 53 50 49 47 43 38 32 27 24 21 19 18 19 19 19 21 26 30 35 38 40 42 47 51 53 55 57 58 59 61 63 64
53 55 58 62 64 64 62 60 60 62 61 57 55 51 47 46 42 34 28 25 22 20 19 19 20 20 22 26 31 36 40 42 45 51 54 57 58 60 62 65 68 70 69 65
Wind_Direction_500mb
277 276 266 260 254 218 219 234 245 284 262 324 321 328 311 325 340 345 359 360 343 329 323 319 312 309 307 311 306 311 319 327 338 338 334 335 340 339 337 340 351 336 344 339
275 286 270 256 246 237 237 239 250 266 285 289 312 316 308 327 333 338 351 357 350 334 319 311 305 302 302 304 301 302 309 317 321 329 332 344 359 6 13 21 29 26 22 21
278 36 308 258 225 208 223 282 239 243 286 337 318 314 309 317 313 329 346 347 345 333 323 311 297 287 286 285 287 289 299 317 324 317 320 341 9 28 23 14 18 9 10 18
287 302 242 68 30 359 247 269 216 275 279 306 301 298 295 276 277 335 336 336 338 331 316 303 293 284 273 268 267 267 267 275 283 289 290 306 319 331 345 347 350 352 356 3
258 255 322 165 194 172 191 243 185 219 278 301 312 313 314 185 330 330 326 326 327 329 318 295 285 277 270 262 257 255 256 261 266 271 276 284 293 298 305 317 324 333 340 344
168 251 266 78 138 166 137 260 139 208 280 308 329 317 21 315 316 320 321 321 321 319 321 315 288 274 267 264 259 258 258 262 264 266 270 276 281 282 287 293 295 301 310 320
222 260 279 118 133 148 192 71 286 267 285 298 290 285 295 308 318 325 324 322 320 316 315 313 305 278 272 268 263 266 261 262 263 265 269 271 273 275 279 285 290 293 296 299
197 225 257 140 139 219 42 303 307 313 309 302 297 300 307 315 319 324 325 326 321 315 311 310 306 296 282 272 275 269 262 261 262 264 265 266 268 270 273 277 280 283 286 288
212 195 92 163 68 226 332 312 322 318 316 310 306 309 312 314 320 322 326 326 324 319 314 310 303 300 290 290 278 270 265 261 261 263 264 264 265 265 267 270 274 277 279 281
212 160 175 176 158 327 343 326 322 322 321 321 314 317 317 319 321 324 327 329 327 326 323 318 311 301 300 294 281 274 264 260 259 258 261 264 264 265 266 268 271 274 275 277
238 134 109 146 124 358 347 341 335 334 336 332 327 328 327 329 331 331 334 335 335 334 330 327 322 312 305 301 289 277 272 263 258 258 258 260 263 265 267 268 270 272 274 275
209 143 92 133 171 323 350 348 348 346 352 350 341 338 338 338 340 340 340 343 342 339 334 333 332 328 315 308 296 283 277 274 265 262 261 261 262 265 265 269 269 269 269 272
161 144 128 159 171 337 350 347 354 359 354 353 357 348 348 347 349 346 347 347 345 342 338 337 336 333 326 320 310 297 288 285 277 271 266 264 264 264 267 268 270 270 271 270
176 151 128 146 169 346 15 11 12 14 11 4 359 357 354 351 351 351 348 345 344 342 339 339 338 336 330 324 319 311 298 291 285 276 269 270 267 266 266 266 268 271 271 271
176 176 159 156 143 70 38 34 28 22 13 9 3 358 356 353 352 350 348 346 346 343 340 339 339 339 336 332 327 320 311 301 294 288 281 272 270 270 269 269 269 270 271 273
175 166 157 153 137 81 35 27 22 15 7 4 0 359 355 353 351 351 351 348 348 348 345 344 344 342 344 341 339 335 326 315 305 296 291 289 287 279 275 273 272 273 275 277
166 169 173 164 132 60 31 18 11 2 358 357 356 355 353 351 351 351 352 352 351 347 345 346 348 350 351 351 350 349 345 337 330 323 312 302 293 284 280 276 276 278 283 288
181 169 164 146 114 65 26 10 2 353 351 352 351 350 350 350 349 348 347 348 350 351 349 351 355 357 357 358 2 3 1 357 354 351 347 340 331 322 313 307 304 302 298 296
170 166 157 132 62 21 1 355 351 347 345 345 346 346 347 346 345 344 342 342 345 349 356 359 1 1 4 8 11 14 15 16 17 18 19 20 17 14 13 12 7 1 354 348
170 163 162 101 354 335 335 335 336 337 337 338 339 340 342 343 341 341 342 341 344 344 349 354 358 1 10 13 16 22 27 30 32 35 35 35 34 31 26 19 10 359 351 344
175 194 229 288 301 310 317 320 319 321 325 329 331 333 335 339 338 337 337 338 338 337 340 346 348 354 3 7 9 18 22 28 30 33 33 32 30 26 20 14 7 360 352 346
212 244 275 287 294 300 303 306 308 310 315 319 322 324 327 331 333 333 331 333 336 335 334 345 353 6 15 14 18 23 26 26 26 25 22 17 12 6 1 356 351 346 340 335
255 274 282 290 294 294 293 295 299 302 307 311 313 316 319 324 326 328 329 330 327 330 335 343 352 3 7 4 8 12 15 15 12 8 4 0 357 353 348 344 339 334 331 327
274 279 284 286 287 289 291 297 297 296 301 306 308 310 313 317 319 322 322 322 322 326 328 332 337 344 347 349 356 0 359 356 353 351 348 345 341 337 335 332 330 326 323 321
278 280 280 283 286 289 293 294 293 294 295 298 304 306 308 309 311 315 316 314 314 313 315 316 319 326 330 338 344 344 343 343 343 340 338 335 332 329 326 325 324 323 322 319
276 276 279 281 286 288 289 291 291 289 290 292 297 299 301 303 305 308 307 303 301 301 303 304 309 314 324 332 333 335 337 337 336 333 330 328 327 326 325 324 323 321 318 316
277 279 282 285 287 290 290 288 284 282 283 284 287 289 292 296 299 300 295 290 288 289 291 295 304 314 321 324 328 332 333 331 330 328 328 327 327 325 323 322 321 320 319 319
Wind_Speed_850mb
15 20 18 24 22 23 29 25 15 6 9 16 24 19 24 38 41 43 42 33 25 22 21 17 15 14 14 14 14 13 12 13 13 16 18 15 12 13 16 19 17 17 18 19
8 3 5 11 20 26 29 31 29 29 39 3 19 24 25 32 33 38 44 43 35 28 24 20 18 16 16 15 13 11 10 10 12 12 13 11 9 8 11 14 16 18 22 24
5 3 14 14 13 19 8 3 17 21 8 11 17 23 29 30 31 35 48 49 43 35 29 26 22 20 17 16 14 10 7 7 8 8 7 8 7 10 12 13 16 17 18 20
7 3 9 4 2 2 8 9 17 9 9 15 26 46 51 21 18 44 56 53 50 41 32 29 28 26 23 20 17 15 12 10 8 7 7 8 9 9 10 12 15 16 18 18
6 8 10 6 8 9 9 5 14 10 11 26 34 41 6 8 30 63 61 51 48 43 38 34 31 30 32 30 27 25 20 17 16 16 15 14 12 12 10 10 11 12 14 15
6 7 7 6 6 8 4 9 8 6 13 23 30 13 1 21 65 61 50 46 47 42 39 36 32 36 39 40 41 38 32 30 29 28 28 26 24 22 21 19 16 14 14 14
17 9 8 6 11 14 5 4 5 10 21 24 15 21 50 63 58 52 50 48 45 43 41 36 32 39 47 47 52 43 42 42 40 37 34 33 31 29 27 26 24 21 18 16
11 11 15 18 13 7 3 11 17 20 24 30 36 43 48 51 52 51 51 48 44 48 44 39 40 41 47 56 50 51 52 54 50 45 43 41 39 36 35 33 31 28 26 22
12 3 7 26 3 4 12 12 16 25 27 28 34 36 40 43 43 46 47 49 49 50 51 44 39 42 50 48 52 56 57 60 59 55 52 49 47 43 42 39 37 33 32 30
3 8 7 10 12 6 10 15 17 19 24 25 30 34 39 39 44 49 52 55 55 54 51 47 40 41 46 45 49 56 61 62 64 66 61 58 55 52 50 46 42 40 38 36
6 7 18 16 6 4 13 16 17 19 22 23 27 31 36 43 45 48 53 54 52 51 51 49 45 43 43 46 45 53 57 61 68 69 68 67 63 59 56 51 48 46 45 43
4 21 4 16 6 4 12 15 18 21 21 21 25 31 37 40 43 49 53 51 51 48 48 48 48 44 42 42 41 46 54 56 60 70 71 72 69 66 61 57 52 51 49 51
8 15 10 9 7 7 11 14 16 18 21 26 28 33 37 41 45 48 48 49 50 51 47 49 50 47 44 42 40 42 46 48 50 59 65 68 72 72 71 63 60 56 52 51
13 11 11 10 6 4 9 12 16 18 24 30 35 36 40 43 45 47 48 49 49 48 46 48 48 46 45 45 44 43 43 45 44 47 53 61 63 66 65 65 64 61 55 53
19 12 15 13 8 5 10 14 20 29 34 37 39 43 46 48 48 48 49 49 50 48 46 47 48 47 46 45 44 42 40 38 39 42 43 46 53 57 58 59 58 58 55 56
25 17 17 14 8 5 10 20 25 30 36 40 44 46 47 48 47 46 48 48 53 56 54 52 49 48 46 45 44 40 36 35 34 33 35 38 40 40 42 44 45 46 47 47
33 25 21 14 9 9 16 22 27 33 37 41 46 49 50 52 51 50 48 47 46 48 47 50 49 46 45 44 42 37 34 31 30 29 28 27 26 27 28 29 30 31 33 34
26 24 21 14 10 10 13 19 26 32 38 44 48 50 52 54 55 55 53 51 46 40 42 44 45 44 41 39 36 34 32 30 27 24 20 19 17 16 15 15 16 16 17 19
30 23 15 9 7 12 17 22 27 33 38 43 46 49 51 52 51 50 49 49 48 47 43 41 41 40 39 37 34 31 28 26 24 23 20 18 17 16 15 14 13 13 13 13
24 15 7 2 6 13 19 25 31 35 40 44 47 49 50 49 50 49 46 45 44 46 42 40 38 36 36 36 34 31 29 28 26 25 24 23 22 20 19 18 16 16 16 16
17 11 7 7 13 19 25 31 35 39 42 46 49 50 51 49 48 49 47 42 38 35 34 34 34 32 31 31 28 26 25 24 24 25 25 25 24 24 23 23 23 23 24 25
15 12 13 20 26 29 33 37 41 46 46 48 50 51 50 48 48 44 43 39 36 35 34 31 28 25 27 26 24 24 24 24 25 25 25 26 27 28 29 31 32 32 32 33
18 21 26 30 35 41 46 48 46 50 52 51 51 50 49 48 46 45 41 37 32 31 29 25 21 21 21 20 21 22 23 24 26 28 30 31 33 35 36 37 38 40 40 41
28 33 38 44 50 55 58 55 53 55 55 55 53 50 49 47 45 42 38 33 30 26 23 20 17 17 19 19 19 21 24 27 30 33 35 37 39 41 43 46 47 47 48 50
40 46 51 54 57 57 57 57 57 58 57 55 53 50 49 46 43 42 36 30 27 23 21 18 17 18 18 18 21 24 29 33 37 39 40 43 46 49 49 51 53 55 57 58
50 52 53 54 56 57 60 59 58 58 59 56 53 50 49 47 43 38 32 27 24 21 19 18 19 19 19 21 26 30 35 38 40 42 47 51 53 55 57 58 59 61 63 64
53 55 58 62 64 64 62 60 60 62 61 57 55 51 47 46 42 34 28 25 22 20 19 19 20 20 22 26 31 36 40 42 45 51 54 57 58 60 62 65 68 70 69 65
Wind_Direction_850mb
277 276 266 260 254 218 219 234 245 284 262 324 321 328 311 325 340 345 359 360 343 329 323 319 312 309 307 311 306 311 319 327 338 338 334 335 340 339 337 340 351 336 344 339
275 286 270 256 246 237 237 239 250 266 285 289 312 316 308 327 333 338 351 357 350 334 319 311 305 302 302 304 301 302 309 317 321 329 332 344 359 6 13 21 29 26 22 21
278 36 308 258 225 208 223 282 239 243 286 337 318 314 309 317 313 329 346 347 345 333 323 311 297 287 286 285 287 289 299 317 324 317 320 341 9 28 23 14 18 9 10 18
287 302 242 68 30 359 247 269 216 275 279 306 301 298 295 276 277 335 336 336 338 331 316 303 293 284 273 268 267 267 267 275 283 289 290 306 319 331 345 347 350 352 356 3
258 255 322 165 194 172 191 243 185 219 278 301 312 313 314 185 330 330 326 326 327 329 318 295 285 277 270 262 257 255 256 261 266 271 276 284 293 298 305 317 324 333 340 344
168 251 266 78 138 166 137 260 139 208 280 308 329 317 21 315 316 320 321 321 321 319 321 315 288 274 267 264 259 258 258 262 264 266 270 276 281 282 287 293 295 301 310 320
222 260 279 118 133 148 192 71 286 267 285 298 290 285 295 308 318 325 324 322 320 316 315 313 305 278 272 268 263 266 261 262 263 265 269 271 273 275 279 285 290 293 296 299
197 225 257 140 139 219 42 303 307 313 309 302 297 300 307 315 319 324 325 326 321 315 311 310 306 296 282 272 275 269 262 261 262 264 265 266 268 270 273 277 280 283 286 288
212 195 92 163 68 226 332 312 322 318 316 310 306 309 312 314 320 322 326 326 324 319 314 310 303 300 290 290 278 270 265 261 261 263 264 264 265 265 267 270 274 277 279 281
212 160 175 176 158 327 343 326 322 322 321 321 314 317 317 319 321 324 327 329 327 326 323 318 311 301 300 294 281 274 264 260 259 258 261 264 264 265 266 268 271 274 275 277
238 134 109 146 124 358 347 341 335 334 336 332 327 328 327 329 331 331 334 335 335 334 330 327 322 312 305 301 289 277 272 263 258 258 258 260 263 265 267 268 270 272 274 275
209 143 92 133 171 323 350 348 348 346 352 350 341 338 338 338 340 340 340 343 342 339 334 333 332 328 315 308 296 283 277 274 265 262 261 261 262 265 265 269 269 269 269 272
161 144 128 159 171 337 350 347 354 359 354 353 357 348 348 347 349 346 347 347 345 342 338 337 336 333 326 320 310 297 288 285 277 271 266 264 264 264 267 268 270 270 271 270
176 151 128 146 169 346 15 11 12 14 11 4 359 357 354 351 351 351 348 345 344 342 339 339 338 336 330 324 319 311 298 291 285 276 269 270 267 266 266 266 268 271 271 271
176 176 159 156 143 70 38 34 28 22 13 9 3 358 356 353 352 350 348 346 346 343 340 339 339 339 336 332 327 320 311 301 294 288 281 272 270 270 269 269 269 270 271 273
175 166 157 153 137 81 35 27 22 15 7 4 0 359 355 353 351 351 351 348 348 348 345 344 344 342 344 341 339 335 326 315 305 296 291 289 287 279 275 273 272 273 275 277
166 169 173 164 132 60 31 18 11 2 358 357 356 355 353 351 351 351 352 352 351 347 345 346 348 350 351 351 350 349 345 337 330 323 312 302 293 284 280 276 276 278 283 288
181 169 164 146 114 65 26 10 2 353 351 352 351 350 350 350 349 348 347 348 350 351 349 351 355 357 357 358 2 3 1 357 354 351 347 340 331 322 313 307 304 302 298 296
170 166 157 132 62 21 1 355 351 347 345 345 346 346 347 346 345 344 342 342 345 349 356 359 1 1 4 8 11 14 15 16 17 18 19 20 17 14 13 12 7 1 354 348
170 163 162 101 354 335 335 335 336 337 337 338 339 340 342 343 341 341 342 341 344 344 349 354 358 1 10 13 16 22 27 30 32 35 35 35 34 31 26 19 10 359 351 344
175 194 229 288 301 310 317 320 319 321 325 329 331 333 335 339 338 337 337 338 338 337 340 346 348 354 3 7 9 18 22 28 30 33 33 32 30 26 20 14 7 360 352 346
212 244 275 287 294 300 303 306 308 310 315 319 322 324 327 331 333 333 331 333 336 335 334 345 353 6 15 14 18 23 26 26 26 25 22 17 12 6 1 356 351 346 340 335
255 274 282 290 294 294 293 295 299 302 307 311 313 316 319 324 326 328 329 330 327 330 335 343 352 3 7 4 8 12 15 15 12 8 4 0 357 353 348 344 339 334 331 327
274 279 284 286 287 289 291 297 297 296 301 306 308 310 313 317 319 322 322 322 322 326 328 332 337 344 347 349 356 0 359 356 353 351 348 345 341 337 335 332 330 326 323 321
278 280 280 283 286 289 293 294 293 294 295 298 304 306 308 309 311 315 316 314 314 313 315 316 319 326 330 338 344 344 343 343 343 340 338 335 332 329 326 325 324 323 322 319
276 276 279 281 286 288 289 291 291 289 290 292 297 299 301 303 305 308 307 303 301 301 303 304 309 314 324 332 333 335 337 337 336 333 330 328 327 326 325 324 323 321 318 316
277 279 282 285 287 290 290 288 284 282 283 284 287 289 292 296 299 300 295 290 288 289 291 295 304 314 321 324 328 332 333 331 330 328 328 327 327 325 323 322 321 320 319 319